• In Hungary
  • List of Countries
  • For 7 days
  • Water Temperature
  • Satellite Maps
  • Weather Map
  • News
  • Weather Widgets
  • user-avatar
    Login

    Hourly Weather Potochyshche

    Today, 20 June, Wednesday

    Time Temperature Precipitation Wind Pressure Humidity
    00:00 +20°C° 0 mm 2 mps 740 mmHg 97%
    01:00 +20°C° 0 mm 2 mps 740 mmHg 96%
    02:00 +19°C° 0 mm 1 mps 740 mmHg 95%
    03:00 +18°C° 0 mm 2 mps 740 mmHg 98%
    04:00 +18°C° 0 mm 2 mps 740 mmHg 100%
    05:00 +17°C° 0 mm 2 mps 740 mmHg 100%
    06:00 +18°C° 0 mm 2 mps 740 mmHg 98%
    07:00 +20°C° 0 mm 3 mps 741 mmHg 96%
    08:00 +21°C° 0 mm 3 mps 741 mmHg 95%
    09:00 +23°C° 0 mm 2 mps 741 mmHg 92%
    10:00 +24°C° 0 mm 2 mps 742 mmHg 89%
    11:00 +25°C° 0 mm 2 mps 742 mmHg 86%
    12:00 +26°C° 0 mm 2 mps 742 mmHg 82%
    13:00 +26°C° 0 mm 2 mps 741 mmHg 78%
    14:00 +26°C° 0 mm 2 mps 741 mmHg 77%
    15:00 +27°C° 0 mm 2 mps 741 mmHg 77%
    16:00 +27°C° 0 mm 2 mps 740 mmHg 77%
    17:00 +26°C° 0 mm 3 mps 740 mmHg 79%
    18:00 +26°C° 0 mm 2 mps 740 mmHg 78%
    19:00 +26°C° 0 mm 1 mps 740 mmHg 85%
    20:00 +25°C° 0 mm 1 mps 740 mmHg 90%
    21:00 +24°C° 0 mm 1 mps 740 mmHg 89%
    22:00 +24°C° 0 mm 1 mps 740 mmHg 89%
    23:00 +23°C° 0 mm 1 mps 740 mmHg 91%

    Tomorrow, 21 June, Thursday

    Time Temperature Precipitation Wind Pressure Humidity
    00:00 +23°C° 0 mm 1 mps 740 mmHg 91%
    01:00 +22°C° 0 mm 1 mps 740 mmHg 92%
    02:00 +22°C° 0 mm 1 mps 740 mmHg 92%
    03:00 +21°C° 0 mm 1 mps 740 mmHg 94%
    04:00 +21°C° 0 mm 1 mps 739 mmHg 95%
    05:00 +21°C° 0 mm 1 mps 739 mmHg 98%
    06:00 +21°C° 0 mm 1 mps 739 mmHg 98%
    07:00 +22°C° 0 mm 1 mps 739 mmHg 97%
    08:00 +23°C° 0 mm 2 mps 739 mmHg 96%
    09:00 +24°C° 0 mm 3 mps 738 mmHg 93%
    10:00 +26°C° 0 mm 4 mps 738 mmHg 89%
    11:00 +26°C° 0 mm 4 mps 738 mmHg 88%
    12:00 +27°C° 0 mm 4 mps 737 mmHg 86%
    13:00 +27°C° 0 mm 3 mps 736 mmHg 85%
    14:00 +28°C° 0 mm 4 mps 736 mmHg 83%
    15:00 +28°C° 0 mm 4 mps 735 mmHg 83%
    16:00 +28°C° 0 mm 4 mps 735 mmHg 82%
    17:00 +28°C° 0 mm 4 mps 734 mmHg 84%
    18:00 +28°C° 0 mm 4 mps 734 mmHg 85%
    19:00 +27°C° 0 mm 4 mps 733 mmHg 90%
    20:00 +26°C° 0 mm 4 mps 732 mmHg 95%
    21:00 +25°C° 0 mm 4 mps 732 mmHg 97%
    22:00 +23°C° 0 mm 4 mps 732 mmHg 98%
    23:00 +22°C° 0 mm 3 mps 732 mmHg 100%

    Day after tomorrow, 22 June, Friday

    Time Temperature Precipitation Wind Pressure Humidity
    00:00 +23°C° 0 mm 2 mps 732 mmHg 100%
    01:00 +21°C° 0 mm 2 mps 731 mmHg 100%
    02:00 +22°C° 0 mm 1 mps 731 mmHg 100%
    03:00 +22°C° 0 mm 1 mps 731 mmHg 100%
    04:00 +20°C° 0 mm 0 mps 731 mmHg 98%
    05:00 +20°C° 0 mm 2 mps 731 mmHg 97%
    06:00 +20°C° 0.6 mm 4 mps 731 mmHg 99%
    07:00 +20°C° 0.1 mm 6 mps 732 mmHg 92%
    08:00 +19°C° 0 mm 6 mps 732 mmHg 91%
    09:00 +17°C° 0 mm 7 mps 732 mmHg 93%
    10:00 +15°C° 2.5 mm 7 mps 733 mmHg 96%
    11:00 +15°C° 2.4 mm 5 mps 733 mmHg 98%
    12:00 +15°C° 2.3 mm 7 mps 732 mmHg 96%
    13:00 +17°C° 1.6 mm 5 mps 733 mmHg 88%
    14:00 +17°C° 0 mm 6 mps 733 mmHg 87%
    15:00 +17°C° 0 mm 5 mps 733 mmHg 85%
    16:00 +17°C° 0 mm 5 mps 733 mmHg 82%
    17:00 +17°C° 0 mm 5 mps 733 mmHg 83%
    18:00 +17°C° 0 mm 5 mps 732 mmHg 82%
    19:00 +16°C° 0 mm 5 mps 733 mmHg 85%
    20:00 +16°C° 0 mm 3 mps 733 mmHg 90%
    21:00 +16°C° 0 mm 3 mps 733 mmHg 93%
    22:00 +14°C° 0 mm 3 mps 733 mmHg 94%
    23:00 +14°C° 0 mm 3 mps 734 mmHg 94%

    23 June, Saturday

    Time Temperature Precipitation Wind Pressure Humidity
    00:00 +13°C° 0 mm 3 mps 734 mmHg 96%
    01:00 +13°C° 0 mm 2 mps 734 mmHg 97%
    02:00 +13°C° 0 mm 2 mps 734 mmHg 99%
    03:00 +12°C° 0 mm 3 mps 734 mmHg 99%
    04:00 +11°C° 0 mm 3 mps 734 mmHg 99%
    05:00 +11°C° 0 mm 3 mps 734 mmHg 99%
    06:00 +12°C° 0 mm 4 mps 735 mmHg 98%
    07:00 +12°C° 0 mm 5 mps 735 mmHg 98%
    08:00 +13°C° 0 mm 5 mps 735 mmHg 97%
    09:00 +13°C° 0 mm 4 mps 736 mmHg 97%
    10:00 +14°C° 0 mm 5 mps 736 mmHg 94%
    11:00 +15°C° 0 mm 5 mps 736 mmHg 88%
    12:00 +17°C° 0 mm 4 mps 736 mmHg 84%
    13:00 +18°C° 0 mm 4 mps 736 mmHg 81%
    14:00 +18°C° 0 mm 3 mps 736 mmHg 80%
    15:00 +19°C° 0 mm 3 mps 736 mmHg 74%
    16:00 +20°C° 0 mm 1 mps 735 mmHg 74%
    17:00 +19°C° 0 mm 2 mps 735 mmHg 76%
    18:00 +17°C° 0.9 mm 3 mps 735 mmHg 87%
    19:00 +16°C° 1.3 mm 2 mps 735 mmHg 92%
    20:00 +15°C° 0 mm 0 mps 735 mmHg 96%
    21:00 +16°C° 0 mm 1 mps 736 mmHg 96%
    22:00 +15°C° 0 mm 1 mps 736 mmHg 97%
    23:00 +15°C° 0 mm 2 mps 736 mmHg 99%

    24 June, Sunday

    Time Temperature Precipitation Wind Pressure Humidity
    00:00 +14°C° 0 mm 2 mps 736 mmHg 100%
    01:00 +14°C° 0 mm 2 mps 736 mmHg 100%
    02:00 +13°C° 0.2 mm 4 mps 736 mmHg 100%

    25 June, Monday

    Time Temperature Precipitation Wind Pressure Humidity
    Show more